Flag for Germany Weather past 2 weeks in Homberg (Efze), Hesse, Germany

Now
26 °F

Chilly.


Feels Like: 26 °F
Forecast: 21 / 28 °F
Wind: 2 mph from East

Location: Fritzlar

Current Time: Dec 27, 2014 at 1:24:16 AM

Latest Report: Dec 27, 2014 at 1:00 AM


Visibility: 7 mi

Pressure: 30.15 "Hg

Humidity: 94%

Dew point: 25 °F

Location of Homberg (Efze)Location

Historic Weather in Homberg (Efze) — Graph

°F

Homberg (Efze) temperature yesterday

Maximum temperature yesterday: 39 °F (at 2:00 PM)
Minimum temperature yesterday: 27 °F (at 11:00 PM)
Average temperature yesterday: 34 °F

Past Weeks' High & Low Weather Summary

 TemperatureHumidityPressure
High56 °F (Dec 18, 9:00 PM)97% (Dec 13, 11:00 PM)30.41 "Hg (Dec 13, 11:00 PM)
Low26 °F (Dec 27, 12:00 AM)67% (Dec 19, 11:00 PM)29.47 "Hg (Dec 12, 7:00 PM)
Average42 °F86%30.01 "Hg
* Reported Midnight between Dec 11 and Dec 12 — Midnight between Dec 26 and Dec 27, Homberg (Efze), Weather by CustomWeather, © 2014

Note: Actual official high and low records may vary slightly from our data, if they occured in-between our weather recording intervals... More about our weather records

Advertising

Homberg (Efze) weather history for previous 24 hours

 ConditionsComfort  
Time TempWeatherWind HumidityBarometerVisibility
12:00 AM
Dec 27
26 °FChilly.1 mph94%30.20 "Hg7 mi
11:00 PM
Dec 26
27 °FChilly.2 mph93%30.23 "Hg7 mi
9:00 PM27 °FChilly.No wind96%30.30 "Hg7 mi
8:00 PM29 °FChilly.No wind94%30.31 "Hg6 mi
7:00 PM31 °FChilly.1 mph93%30.32 "Hg9 mi
6:00 PM32 °FChilly.2 mph91%30.34 "Hg10 mi
5:00 PM33 °FChilly.2 mph91%30.35 "Hg11 mi
4:00 PM36 °FChilly.3 mph84%30.35 "Hg13 mi
3:00 PM38 °FChilly.2 mph74%30.35 "Hg14 mi
2:00 PM39 °FChilly.5 mph71%30.37 "Hg12 mi
1:00 PM38 °FChilly.5 mph81%30.38 "Hg9 mi
12:00 PM36 °FChilly.2 mph87%30.39 "Hg11 mi
11:00 AM35 °FChilly.2 mph93%30.40 "Hg7 mi
10:00 AM32 °FChilly.N/A92%30.40 "Hg9 mi
9:00 AM31 °FChilly.1 mph93%30.40 "Hg9 mi
8:00 AM31 °FChilly.2 mph92%30.38 "Hg9 mi
7:00 AM32 °FChilly.2 mph90%30.37 "Hg9 mi
6:00 AM31 °FChilly.2 mph91%30.37 "Hg9 mi
5:00 AM35 °FChilly.2 mph80%30.37 "Hg9 mi
4:00 AM37 °FChilly.3 mph77%30.36 "Hg11 mi
3:00 AM37 °FChilly.5 mph78%30.35 "Hg11 mi
2:00 AM36 °FChilly.2 mph84%30.34 "Hg11 mi
1:00 AM37 °FChilly.2 mph77%30.33 "Hg10 mi
Weather by CustomWeather, © 2014

See weather overviewHow to use our weather pages